Simultaneous Nadir Overpasses (SNOs) Predictions

Prediction of SNOs between GOES-15 and LANDSAT-8 Satellite Orbit:

Table of predicted SNOs for the next 14.0 days since TLE Epoch: 2/6/2021
Index Date Time (GOES-15) GOES-15 Lat,Lon LANDSAT-8 Lat,Lon Distance(km) Time Diff (sec)
1 02/06/2021 06:52:03 0.11,-127.31 -0.49,-130.15 322.88 80
2 02/08/2021 06:42:31 0.11,-127.22 0.12,-127.19 3.43 80
3 02/10/2021 06:30:19 0.10,-127.13 0.73,-124.23 329.71 80
4 02/10/2021 18:48:55 -0.14,-127.16 0.33,-129.40 253.79 80
5 02/12/2021 18:39:23 -0.14,-127.07 -0.28,-126.44 72.40 80
6 02/14/2021 18:27:11 -0.13,-126.98 -0.90,-123.48 398.64 80
7 02/15/2021 06:45:55 0.17,-126.89 -0.20,-128.67 201.98 80
8 02/17/2021 06:36:23 0.17,-126.80 0.42,-125.71 123.79 80
9 02/17/2021 18:54:59 -0.21,-126.83 0.65,-130.88 459.37 80
10 02/19/2021 06:24:10 0.16,-126.69 0.98,-122.74 449.09 80
11 02/19/2021 18:42:47 -0.20,-126.73 0.02,-127.92 134.31 80
